• In Hungary
  • List of Countries
  • For 7 days
  • Water Temperature
  • Satellite Maps
  • Weather Map
  • News
  • Weather Widgets
  • user-avatar
    Login

    Hourly Weather Ganja

    Today, 21 June, Thursday

    Time Temperature Precipitation Wind Pressure Humidity
    00:00 +23°C° 0 mm 1 mps 726 mmHg 63%
    01:00 +22°C° 0 mm 1 mps 726 mmHg 64%
    02:00 +22°C° 0 mm 1 mps 726 mmHg 65%
    03:00 +21°C° 0 mm 1 mps 726 mmHg 66%
    04:00 +22°C° 0 mm 1 mps 726 mmHg 64%
    05:00 +23°C° 0 mm 1 mps 727 mmHg 63%
    06:00 +21°C° 0 mm 0 mps 727 mmHg 61%
    07:00 +24°C° 0 mm 1 mps 727 mmHg 58%
    08:00 +26°C° 0 mm 1 mps 726 mmHg 54%
    09:00 +27°C° 0 mm 1 mps 726 mmHg 51%
    10:00 +28°C° 0 mm 2 mps 726 mmHg 49%
    11:00 +29°C° 0 mm 2 mps 726 mmHg 46%
    12:00 +30°C° 0 mm 2 mps 725 mmHg 44%
    13:00 +30°C° 0.1 mm 3 mps 725 mmHg 43%
    14:00 +31°C° 0.1 mm 3 mps 725 mmHg 41%
    15:00 +33°C° 0.1 mm 3 mps 724 mmHg 40%
    16:00 +31°C° 0.1 mm 3 mps 724 mmHg 42%
    17:00 +31°C° 0.1 mm 3 mps 724 mmHg 43%
    18:00 +30°C° 0.1 mm 4 mps 724 mmHg 45%
    19:00 +29°C° 0 mm 3 mps 725 mmHg 47%
    20:00 +28°C° 0 mm 3 mps 725 mmHg 49%
    21:00 +26°C° 0 mm 2 mps 725 mmHg 52%
    22:00 +26°C° 0 mm 3 mps 725 mmHg 52%
    23:00 +25°C° 0 mm 3 mps 725 mmHg 53%

    Tomorrow, 22 June, Friday

    Time Temperature Precipitation Wind Pressure Humidity
    00:00 +24°C° 0 mm 3 mps 725 mmHg 54%
    01:00 +24°C° 0 mm 3 mps 725 mmHg 55%
    02:00 +23°C° 0 mm 2 mps 725 mmHg 57%
    03:00 +21°C° 0 mm 2 mps 725 mmHg 58%
    04:00 +23°C° 0 mm 1 mps 725 mmHg 57%
    05:00 +23°C° 0 mm 1 mps 725 mmHg 57%
    06:00 +24°C° 0 mm 1 mps 725 mmHg 56%
    07:00 +25°C° 0 mm 1 mps 725 mmHg 52%
    08:00 +27°C° 0 mm 1 mps 724 mmHg 48%
    09:00 +28°C° 0 mm 2 mps 724 mmHg 43%
    10:00 +29°C° 0 mm 2 mps 724 mmHg 40%
    11:00 +30°C° 0 mm 3 mps 723 mmHg 38%
    12:00 +33°C° 0 mm 4 mps 723 mmHg 35%
    13:00 +33°C° 0 mm 4 mps 723 mmHg 34%
    14:00 +34°C° 0 mm 5 mps 722 mmHg 33%
    15:00 +34°C° 0 mm 5 mps 722 mmHg 32%
    16:00 +34°C° 0 mm 5 mps 722 mmHg 34%
    17:00 +33°C° 0 mm 5 mps 721 mmHg 36%
    18:00 +33°C° 0 mm 4 mps 721 mmHg 38%
    19:00 +30°C° 0 mm 4 mps 722 mmHg 40%
    20:00 +28°C° 0 mm 4 mps 722 mmHg 42%
    21:00 +26°C° 0 mm 4 mps 722 mmHg 43%
    22:00 +26°C° 0 mm 4 mps 722 mmHg 44%
    23:00 +25°C° 0 mm 3 mps 722 mmHg 44%

    Day after tomorrow, 23 June, Saturday

    Time Temperature Precipitation Wind Pressure Humidity
    00:00 +25°C° 0 mm 3 mps 722 mmHg 45%
    01:00 +24°C° 0 mm 2 mps 722 mmHg 46%
    02:00 +24°C° 0 mm 2 mps 722 mmHg 47%
    03:00 +23°C° 0 mm 1 mps 722 mmHg 49%
    04:00 +23°C° 0 mm 1 mps 722 mmHg 49%
    05:00 +24°C° 0 mm 1 mps 722 mmHg 49%
    06:00 +24°C° 0 mm 1 mps 722 mmHg 49%
    07:00 +25°C° 0 mm 1 mps 722 mmHg 45%
    08:00 +27°C° 0 mm 1 mps 722 mmHg 41%
    09:00 +28°C° 0 mm 1 mps 722 mmHg 37%
    10:00 +29°C° 0 mm 2 mps 722 mmHg 35%
    11:00 +30°C° 0 mm 2 mps 721 mmHg 34%
    12:00 +31°C° 0 mm 2 mps 721 mmHg 32%
    13:00 +33°C° 0 mm 3 mps 721 mmHg 32%
    14:00 +33°C° 0 mm 3 mps 720 mmHg 31%
    15:00 +34°C° 0 mm 3 mps 720 mmHg 31%
    16:00 +34°C° 0 mm 2 mps 720 mmHg 33%
    17:00 +32°C° 0 mm 2 mps 720 mmHg 34%
    18:00 +32°C° 0 mm 2 mps 721 mmHg 36%
    19:00 +30°C° 0 mm 2 mps 721 mmHg 38%
    20:00 +29°C° 0 mm 2 mps 722 mmHg 40%
    21:00 +27°C° 0 mm 2 mps 722 mmHg 42%
    22:00 +26°C° 0 mm 2 mps 722 mmHg 43%
    23:00 +26°C° 0 mm 2 mps 722 mmHg 43%

    24 June, Sunday

    Time Temperature Precipitation Wind Pressure Humidity
    00:00 +25°C° 0 mm 2 mps 722 mmHg 43%
    01:00 +24°C° 0 mm 2 mps 722 mmHg 44%
    02:00 +24°C° 0 mm 2 mps 722 mmHg 45%
    03:00 +24°C° 0 mm 3 mps 722 mmHg 45%
    04:00 +24°C° 0 mm 3 mps 723 mmHg 46%
    05:00 +25°C° 0 mm 3 mps 723 mmHg 46%
    06:00 +25°C° 0 mm 3 mps 723 mmHg 47%
    07:00 +27°C° 0 mm 3 mps 723 mmHg 44%
    08:00 +28°C° 0 mm 4 mps 723 mmHg 41%
    09:00 +30°C° 0 mm 4 mps 723 mmHg 37%
    10:00 +31°C° 0 mm 3 mps 723 mmHg 36%
    11:00 +33°C° 0 mm 3 mps 722 mmHg 35%
    12:00 +34°C° 0 mm 3 mps 722 mmHg 34%
    13:00 +35°C° 0 mm 2 mps 722 mmHg 33%
    14:00 +35°C° 0 mm 2 mps 722 mmHg 33%
    15:00 +36°C° 0 mm 2 mps 722 mmHg 32%
    16:00 +35°C° 0 mm 2 mps 722 mmHg 34%
    17:00 +35°C° 0 mm 2 mps 722 mmHg 35%
    18:00 +35°C° 0 mm 2 mps 722 mmHg 36%
    19:00 +32°C° 0 mm 2 mps 723 mmHg 38%
    20:00 +30°C° 0 mm 2 mps 723 mmHg 41%
    21:00 +29°C° 0 mm 2 mps 724 mmHg 43%
    22:00 +28°C° 0 mm 2 mps 724 mmHg 43%
    23:00 +27°C° 0 mm 2 mps 724 mmHg 44%

    25 June, Monday

    Time Temperature Precipitation Wind Pressure Humidity
    00:00 +26°C° 0 mm 2 mps 724 mmHg 45%
    01:00 +26°C° 0 mm 2 mps 724 mmHg 45%
    02:00 +25°C° 0 mm 2 mps 724 mmHg 46%
    03:00 +25°C° 0 mm 2 mps 724 mmHg 46%
    04:00 +25°C° 0 mm 2 mps 724 mmHg 47%
    05:00 +26°C° 0 mm 2 mps 724 mmHg 47%
    06:00 +26°C° 0 mm 2 mps 725 mmHg 48%
    07:00 +28°C° 0 mm 2 mps 725 mmHg 44%
    08:00 +29°C° 0 mm 2 mps 725 mmHg 40%
    09:00 +31°C° 0 mm 3 mps 725 mmHg 37%
    10:00 +32°C° 0 mm 2 mps 724 mmHg 36%
    11:00 +34°C° 0 mm 2 mps 724 mmHg 35%
    12:00 +35°C° 0 mm 2 mps 724 mmHg 33%
    13:00 +35°C° 0 mm 2 mps 724 mmHg 33%
    14:00 +36°C° 0 mm 3 mps 723 mmHg 32%
    15:00 +37°C° 0 mm 3 mps 723 mmHg 31%
    16:00 +36°C° 0 mm 3 mps 723 mmHg 33%
    17:00 +36°C° 0 mm 3 mps 724 mmHg 34%
    18:00 +36°C° 0 mm 3 mps 724 mmHg 35%
    19:00 +34°C° 0 mm 3 mps 724 mmHg 38%
    20:00 +31°C° 0 mm 3 mps 725 mmHg 40%
    21:00 +29°C° 0 mm 3 mps 725 mmHg 43%
    22:00 +28°C° 0 mm 3 mps 725 mmHg 44%
    23:00 +28°C° 0 mm 3 mps 725 mmHg 45%

    26 June, Tuesday

    Time Temperature Precipitation Wind Pressure Humidity
    00:00 +27°C° 0 mm 3 mps 725 mmHg 46%
    01:00 +27°C° 0 mm 2 mps 725 mmHg 47%
    02:00 +26°C° 0 mm 2 mps 724 mmHg 47%
    03:00 +26°C° 0 mm 2 mps 724 mmHg 48%
    04:00 +26°C° 0 mm 2 mps 724 mmHg 48%
    05:00 +26°C° 0 mm 1 mps 725 mmHg 48%
    06:00 +27°C° 0 mm 1 mps 725 mmHg 48%
    07:00 +28°C° 0 mm 1 mps 724 mmHg 44%
    08:00 +30°C° 0 mm 2 mps 724 mmHg 41%
    09:00 +31°C° 0 mm 2 mps 724 mmHg 37%
    10:00 +32°C° 0 mm 2 mps 724 mmHg 35%
    11:00 +35°C° 0 mm 3 mps 723 mmHg 33%
    12:00 +36°C° 0 mm 4 mps 723 mmHg 31%
    13:00 +36°C° 0 mm 4 mps 723 mmHg 31%
    14:00 +37°C° 0 mm 4 mps 722 mmHg 30%
    15:00 +37°C° 0 mm 5 mps 722 mmHg 30%
    16:00 +37°C° 0 mm 5 mps 722 mmHg 32%
    17:00 +36°C° 0 mm 4 mps 722 mmHg 34%
    18:00 +36°C° 0 mm 4 mps 722 mmHg 36%
    19:00 +34°C° 0 mm 4 mps 722 mmHg 38%
    20:00 +32°C° 0 mm 4 mps 723 mmHg 40%
    21:00 +29°C° 0 mm 4 mps 723 mmHg 43%
    22:00 +29°C° 0 mm 3 mps 723 mmHg 44%
    23:00 +28°C° 0 mm 2 mps 723 mmHg 45%
    Show more